Pian Rosa, Italy

3:12 PM CEST on August 18, 2017 (GMT +0200)
Pian Rosa

Weather History for LIMH - September, 2012

Change the Weather History Date:

Sunday, September 9, 2012

  Actual Average Record
Temperature  
Mean Temperature 36 °F -  
Max Temperature 39 °F 33 °F 44 °F (1998)
Min Temperature 32 °F 25 °F 17 °F (1996)
Degree Days  
Heating Degree Days 30    
Moisture  
Dew Point 26 °F    
Average Humidity 67    
Maximum Humidity 93    
Minimum Humidity 23    
Precipitation  
Precipitation 0.00 in - - ()
Sea Level Pressure  
Sea Level Pressure 30.50 in    
Wind  
Wind Speed 1 mph ()    
Max Wind Speed 7 mph    
Max Gust Speed -    
Visibility 2.3 miles    
Events Fog    
Averages and records for this station are not official NWS values.
T = Trace of Precipitation, MM = Missing Value Source: Averaged Metar Reports

Daily Weather History Graph

Daily Weather History Graph

Search for Another Location

Airport or City:

Trip Planner

Search our weather history database for the weather conditions in past years. The results will help you decide how hot, cold, wet, or windy it might be!

Date:

Astronomy

Sep. 09, 2012 Rise Set
Actual Time 7:00 AM CEST 7:51 PM CEST
Civil Twilight 6:29 AM CEST 8:21 PM CEST
Nautical Twilight 5:53 AM CEST 8:57 PM CEST
Astronomical Twilight 5:15 AM CEST 9:35 PM CEST
Moon 12:01 AM CEST (9/9) 3:38 PM CEST (9/9)
Length of Visible Light 13h 52m
Length of Day
12h 51m
Last Quarter, 42% of the Moon is Illuminated
Sep 9
Last Quarter
Sep 16
New
Sep 22
First Quarter
Sep 30
Full
Oct 8
Last Quarter

Hourly Weather History & Observations

Time (CEST) Temp. Windchill Dew Point Humidity Pressure Visibility Wind Dir Wind Speed Gust Speed Precip Events Conditions
12:55 AM 33.8 °F - 32.0 °F 93% 30.57 in 0.3 mi Calm Calm - N/A Fog Fog
1:55 AM 35.6 °F - 32.0 °F 87% 30.54 in 0.3 mi Calm Calm - N/A Fog Fog
2:00 AM 35 °F - 32 °F 83%  in 0 mi Calm Calm - - Fog Heavy Fog
2:55 AM 33.8 °F - 30.2 °F 87% 30.54 in 0.5 mi Calm Calm - N/A   Unknown
3:55 AM 33.8 °F - 28.4 °F 81% 30.51 in 4.3 mi Calm Calm - N/A   Partly Cloudy
4:55 AM 33.8 °F - 26.6 °F 75% 30.51 in - Calm Calm - N/A   Clear
5:00 AM 34 °F - 27 °F 68%  in 6 mi Calm Calm - -   Partly Cloudy
6:55 AM 32.0 °F - 14.0 °F 48% 30.51 in - Calm Calm - N/A   Clear
7:55 AM 32.0 °F 27.5 °F 17.6 °F 55% 30.48 in - SE 4.6 mph - N/A   Clear
8:00 AM 32 °F - 18 °F 43%  in 47 mi SE 4.6 mph - -   Partly Cloudy
8:55 AM 33.8 °F - 3.2 °F 28% 30.48 in - Calm Calm - N/A   Clear
9:55 AM 37.4 °F - 10.4 °F 33% 30.51 in 6.2 mi Variable 1.2 mph - N/A   Partly Cloudy
10:55 AM 39.2 °F - 14.0 °F 36% 30.51 in 6.2 mi Variable 2.3 mph - N/A   Partly Cloudy
11:00 AM 38 °F - 14 °F 23%  in 19 mi 2.3 mph - -   Scattered Clouds
11:55 AM 39.2 °F - 26.6 °F 61% 30.51 in 1.2 mi Variable 2.3 mph - N/A   Mist
12:55 PM 39.2 °F 37.0 °F 30.2 °F 70% 30.51 in 0.1 mi Variable 3.5 mph - N/A Fog Fog
1:55 PM 39.2 °F 37.0 °F 30.2 °F 70% 30.51 in 0.5 mi Variable 3.5 mph - N/A Fog Fog
2:00 PM 39 °F - 31 °F 63%  in 0 mi 3.5 mph - - Fog Heavy Fog
2:55 PM 39.2 °F 37.0 °F 32.0 °F 75% 30.51 in 0.5 mi Variable 3.5 mph - N/A Fog Fog
3:55 PM 39.2 °F 37.0 °F 32.0 °F 75% 30.51 in 0.5 mi Variable 3.5 mph - N/A Fog Fog
4:55 PM 39.2 °F 35.0 °F 30.2 °F 70% 30.48 in 3.7 mi South 5.8 mph - N/A   Scattered Clouds
5:00 PM 38 °F - 30 °F 64%  in 4 mi South 5.8 mph - - Fog Light Fog
5:55 PM 39.2 °F 34.2 °F 30.2 °F 70% 30.48 in 0.3 mi SSW 6.9 mph - N/A Fog Fog
6:55 PM 37.4 °F 34.9 °F 32.0 °F 81% 30.48 in 0.2 mi Variable 3.5 mph - N/A Fog Fog
7:55 PM 37.4 °F - 30.2 °F 75% 30.48 in 0.3 mi Calm Calm - N/A Fog Fog
8:00 PM 38 °F - 31 °F 67%  in 0 mi Calm Calm - - Fog Heavy Fog
8:55 PM 35.6 °F - 30.2 °F 81% 30.48 in 0.5 mi Variable 1.2 mph - N/A Fog Fog
10:55 PM 33.8 °F - 30.2 °F 87% 30.48 in 0.1 mi Variable 2.3 mph - N/A Fog Fog
11:00 PM 34 °F - 30 °F 81%  in 0 mi 2.3 mph - - Fog Heavy Fog